Regional & State Weather Roundups


288 
ASUS41 KAKQ 160315
RWRAKQ
REGIONAL WEATHER ROUNDUP
NATIONAL WEATHER SERVICE WAKEFIELD VA
1000 PM EST FRI DEC 15 2017
Note: "fair" indicates few or no clouds below 12,000 feet with no
significant weather and/or obstructions to visibility. * = Denotes
station may not report precipitation (e.g., rain,snow,etc.),
thunder or fog.
VAZ042-051-052>054-056-160400-
NORTHERN VIRGINIA
  
CITY           SKY/WX    TMP DP  RH WIND       PRES   REMARKS
WASH NATIONAL  PTCLDY    27  24  89 S6        30.02S                  
DULLES         MOCLDY    24  23  96 S8        30.00S                  
FORT BELVOIR   CLEAR     21  19  91 CALM      30.02S                  
QUANTICO       CLEAR     25  23  92 CALM      30.04S                  
FREDERICKSBRG* CLEAR     22  22  99 CALM      30.03S                  
STAFFORD*      CLEAR     19  19 100 CALM      30.06S                  
WARRENTON      CLEAR     17  13  84 CALM      30.00S                  
CULPEPER*      CLEAR     19  17  89 CALM      30.02S                  
MANASSAS*      CLEAR     17  15  92 CALM      30.02R FOG              
LEESBURG*      CLOUDY    25  25 100 S5        30.00S                  
WINCHESTER     CLOUDY    32  16  51 W16G25    29.97S WCI  21          
FRONT ROYAL*   PTCLDY    30  18  59 MISG      29.96S                  
LURAY*         CLEAR     32  18  55 W8G17     29.98R                  
$$
VAZ048-049-060>072-079>083-160400-
CENTRAL AND SOUTH CENTRAL VIRGINIA
  
CITY           SKY/WX    TMP DP  RH WIND       PRES   REMARKS
RICHMOND       CLEAR     29  18  63 CALM      30.04R                  
CHESTERFIELD*  NOT AVBL                                               
PETERSBURG*    CLEAR     21  18  86 SW5       30.05R                  
HANOVER        CLEAR     22  18  85 CALM      30.05R                  
TAPPAHANNOCK*  CLEAR     23  20  87 CALM      30.05R                  
QUINTON*       FAIR      24  20  85 CALM      30.04R                  
CHARLOTTSVILLE CLEAR     30  18  60 VRB3      30.00R                  
GORDONSVILLE*  CLEAR     19  18  95 S6        30.01R                  
ORANGE*        CLEAR     19  18  93 CALM      30.01S                  
LOUISA*        CLEAR     16  14  93 SW3       30.06R                  
BUMPASS*       FAIR      21  18  90 CALM      30.02S                  
FARMVILLE*     CLEAR     28  24  86 CALM      30.03R                  
CREWE*         FAIR      25  24  99 CALM      30.03R                  
FORT PICKETT*  NOT AVBL                                               
CHASE CITY*    FAIR      31  20  63 W3        30.05R                  
CLARKSVILLE*   FAIR      32  23  69 W3        30.06R                  
SOUTH HILL*    CLEAR     31  24  77 W3        30.11R                  
LAWRENCEVILLE* FAIR      30  23  73 CALM      30.05R                  
EMPORIA*       CLEAR     28  23  80 CALM      30.07S                  
$$
VAZ088>098-160400-
SOUTHEAST VIRGINIA
  
CITY           SKY/WX    TMP DP  RH WIND       PRES   REMARKS
NORFOLK        CLEAR     34  24  67 CALM      30.05R                  
VIRGINIA BEACH CLEAR     32  21  64 NW7       30.04R                  
NORFOLK NAVAL  CLEAR     34  23  64 NW9       30.06R                  
WEST POINT*    CLEAR    N/A N/A N/A CALM      30.06S                  
SALUDA*        FAIR      28  21  75 NW3       30.04R                  
NEWPORT NEWS   CLEAR     29  19  66 CALM      30.05R                  
LANGLEY AFB    CLEAR     29  19  65 NW3       30.04R                  
FORT EUSTIS    CLEAR     32  22  65 NW5       30.02R                  
WILLIAMSBURG*  CLEAR     28  21  74 CALM      30.05S                  
HR EXEC AP*    FAIR      28  24  85 CALM      30.06R                  
FRANKLIN*      CLEAR     29  23  80 CALM      30.06S                  
US460-WAKEFLD  CLEAR     25  22  88 CALM      30.05R                  
$$
VAZ020-022-025-037-045-160400-
WEST CENTRAL AND SOUTHWEST VIRGINIA
  
CITY           SKY/WX    TMP DP  RH WIND       PRES   REMARKS
STAUNTON*      CLEAR     27  15  59 SW7       30.00R                  
WAYNESBORO*    CLEAR     29  15  56 CALM      29.97R                  
HOT SPRINGS VA CLOUDY    22  13  69 NW22G39   29.85S WCI   6          
LYNCHBURG      CLEAR     32  16  51 VRB5      30.02R                  
DANVILLE       CLEAR     30  20  66 W5        30.07R                  
SOUTH BOSTON*  FAIR      29  22  74 CALM      30.07R                  
MARTINSVILLE   CLEAR     27  19  70 CALM      30.09S                  
ROANOKE        CLOUDY    33  17  51 W23G32    30.06S WCI  21          
BLACKSBURG     CLOUDY    29  18  63 NW17G26   30.05S WCI  17          
DUBLIN*        CLOUDY    31  19  59 W20G28    30.06R WCI  19          
MARION*        CLOUDY    29  15  57 W18G35    30.05R WCI  16          
HILLSVILLE*    CLOUDY    27  17  65 NW15G22   30.00S WCI  15          
RICHLANDS*     CLOUDY    27  17  67 W12       30.08R WCI  16          
WISE*          CLOUDY    30  21  69 W8        30.09S                  
ABINGDON*      CLOUDY    31  21  67 W8        30.12R                  
$$
MDZ021>025-VAZ099-100-160400-
SOUTHERN MARYLAND AND THE DELMARVA PENINSULA
  
CITY           SKY/WX    TMP DP  RH WIND       PRES   REMARKS
PATUXENT RIVER PTCLDY    24  23  96 W7        30.03R                  
BAY BRIDGE APT CLEAR     28  25  86 MISG      30.01S                  
LEONARDTOWN    CLEAR     27  23  86 SW5       30.04R                  
DOVER          CLEAR     22  22 100 W5        30.00R                  
GEORGETOWN     PTCLDY    27  24  89 W5        30.01R                  
EASTON         CLOUDY    27  25  93 W3        30.05R                  
CAMBRIDGE      CLEAR     27  27 100 W5        30.03R                  
SALISBURY      MOCLDY    28  27  96 W6        30.02R                  
OCEAN CITY     CLEAR     28  25  88 NW8       30.01R                  
WALLOPS ISLAND PTCLDY    30  27  88 NW8       30.03R                  
ACCOMACK*      MOCLDY    33  29  85 NW9       30.04R                  
$$
NCZ012>017-030>032-160400-
NORTH CENTRAL AND EASTERN NORTH CAROLINA
  
CITY           SKY/WX    TMP DP  RH WIND       PRES   REMARKS
ROANOKE RAPIDS FAIR      30  28  93 SW5       30.06S                  
RALEIGH        PTCLDY    33  26  75 W3        30.08R                  
ELIZABETH CITY CLOUDY    35  28  75 W8        30.05R                  
AHOSKIE*       CLEAR     31  26  83 CALM      30.06S                  
EDENTON*       CLOUDY    39  30  70 NW7       30.06R                  
CURRITUCK*     CLOUDY    36  27  69 W7        30.05R                  
KILL DEVIL HLS CLOUDY    38  28  65 NW9G16    30.02R                  
MANTEO         CLOUDY    40  28  64 N13       30.04R                  
CAPE HATTERAS  CLOUDY    44  30  57 NW15G29   30.03R                  
TARBORO*       NOT AVBL                                               
GOLDSBORO      CLEAR     37  28  71 CALM      30.06R                  
WASHINGTON     PTCLDY    38  27  64 CALM      30.07R                  
GREENVILLE     CLEAR     37  28  70 CALM      30.08S                  
NEW BERN       PTCLDY    41  29  62 NW10      30.07R                  
WILMINGTON     PTCLDY    48  34  58 N9        30.07R                  
$$
VAZ048-160400-
ELSEWHERE
  
CITY           SKY/WX    TMP DP  RH WIND       PRES   REMARKS
HARRISBURG PA  MOCLDY    24  21  88 S6        29.95R                  
BALTIMORE      MOCLDY    20  19  96 SW3       30.00R                  
ANNAPOLIS      CLEAR     27  26  96 CALM      30.01S                  
ANDREWS AFB    CLEAR     23  21  91 SW6       30.00R                  
PHILADELPHIA   PTCLDY    24  19  81 W10       29.98S WCI  14          
HENDERSON NC   CLEAR     30  22  70 CALM      30.06R                  
GREENSBORO     PTCLDY    31  22  69 NW6       30.07R                  
ROCKY MOUNT    CLEAR     30  28  92 CALM      30.07R                  
$$
VAZ100-160400-
MARINE
  
STATION/POSITION TIME  TEMP    WIND        PRES    WAVE   SWELL
                       AIR SEA DIR/SP/G            HT/PER HT/PER
                 (UTC) (F)     (DEG/KT/KT) (MB)    (FT/S) (FT/S)
BRANDYWINE LGT   0248          310/ 16/ 23 1015.8R
CAPE MAY NJ      0248   31 42  320/ 12/ 18 1014.9R
LEWES DE         0248   27 41  280/ 10/ 12 1015.7R
15NM E FENWICK I 0250   36 52  300/ 25/ 29 1015.1R   5/ 5
OCEAN-CITY-INLET 0248          320/  9/ 11 1016.2R
WACHAPREAGUE VA  0248   34 38  260/  3/  5 1016.8R
THOMAS POINT MD  0300   29 43  240/  9/ 10   N/A
GOOSES REEF MD   0300   31 45  260/ 12/ 14 1017.1    1/ 2
COVE POINT MD    0248   29     290/  7/  9 1017.3R
SOLOMONS ISLAND  0248          260/  6/  8 1016.5R
BISHOPS HEAD MD  0248   32 34  290/ 11/ 13 1016.9R
PINEY POINT MD   0248          280/  7/  9   N/A
POTOMAC MD       0300   33 45  280/ 12/ 14 1016.4    1/ 2
CAMBRIDGE MD     0248                      1017.2R
LEWISETTA VA     0248   29 40  290/  5/  6 1017.3R
RAPPAHANNOCK LGT 0248          300/ 14/ 18 1017.7R
STINGRAY PT      0300   34 44  340/ 12/ 14 1017.5    1/ 2
YORK RVR RNG VA  0248   32     330/  9/ 11 1017.9R
YORKTOWN VA      0248   32 46  290/  5/  7 1017.1R
JAMESTOWN VA     0300      44   10/  4/  6   N/A     0
DOMINION TERM VA 0248   36     310/ 13/ 17 1017.5R
KIPTOPEKE VA     0248      44  320/ 17/ 19   N/A
CAPE HENRY VA    0248   35     300/ 14/ 20   N/A
WILLOUBY STN VA  0248          320/  9/ 11 1017.4R
S CRANEY ISL VA  0248   34     280/  7/ 10 1017.2R
CAPE HENRY BUOY  0300      53                N/A     4/ 4
1ST LANDING BUOY 0300   35 47  330/ 16/ 19 1017.4    2/ 3
CAPE CHARLES BUO 0251      51                N/A     3/ 3
64NM E OF VA BCH 0250   42 59  310/ 25/ 31 1015.6R   9/ 6
DUCK PIER NC     0248   39 52  300/ 15/ 19 1016.4R
44100 DUCK FRF   0245      54                N/A     4/ 5
44056 DUCK FRF   0300      54                N/A     3/ 4
OREGON INLET NC  0248          300/ 14/ 19 1016.7R
HATTERAS NC      0248   45 55  320/ 27/ 31 1016.6R
DIAMOND SHLS NC  0250   50 73  310/ 23/ 33 1016.5R   6/ 6   2/11
CAPE LOOKOUT NC  0300          340/ 16/ 19 1017.8R
$$